Voltar ao catálogo

FENGYUN 1C DEB

AtivoSSO
NORAD 32175·DEBRIS·🇨🇳 China

Lançado May 10, 1999 de Taiyuan Satellite Launch Center

Loading…

Próximas Passagens (próximas 24 horas)

TLE

EnvelhecendoSource: Space-Track

Época: Sep 7, 2026, 04:47 UTC

1 32175U 99025CTV 26250.19988276  .00001893  00000-0  12799-2 0  9999
2 32175  98.8383 232.7974 0146965 303.7948  54.9292 13.96467146635853

Acompanhe FENGYUN 1C DEB em tempo real com AllMySat

Download on the App Store